This demonstration page uses our WeatherBlox Daily Observations layout. Learn more.

Left ArrowRight Arrow

44.8408, -93.29828

Hourly Observations for March 5, 2016

Temp ( °F °C ) Dew Point ( °F °C ) Humidity (%) Winds ( mph kmh ) Pressure ( in mb ) Visibility ( mi km ) Precip ( " mm )
12:16 am 00:16 Cloudy 36 2 28 -2 75 75 NW 22 35 30.00 1016 10 16 0.00 0.00
12:53 am 00:53 Cloudy 35 1.7 27 -2.8 72 72 WNW 20 31 30.00 1016 10 16 0.00 0.00
1:53 am 01:53 Cloudy 34 1.1 28 -2.2 79 79 NW 16 26 30.03 1017 10 16 0.00 0.00
2:42 am 02:42 Cloudy 34 1 28 -2 81 81 NW 17 28 30.03 1017 8 13 0.00 0.00
2:53 am 02:53 Cloudy 33 0.6 28 -2.2 82 82 NW 18 30 30.05 1018 8 13 0.00 0.00
3:53 am 03:53 Cloudy 32 0 27 -2.8 82 82 NW 14 22 30.08 1019 10 16 0.00 0.00
4:53 am 04:53 Cloudy 32 0 27 -2.8 82 82 NW 15 24 30.11 1020 10 16 0.00 0.00
5:53 am 05:53 Cloudy 32 0 27 -2.8 82 82 NNW 9 15 30.13 1020 10 16 0.00 0.00
6:53 am 06:53 Cloudy 31 -0.6 26 -3.3 82 82 NNW 10 17 30.16 1021 10 16 0.00 0.00
7:34 am 07:34 Cloudy 32 0 26 -3.3 79 79 NNW 8 13 30.18 1022 10 16 0.00 0.00
7:53 am 07:53 Cloudy 32 0 27 -2.8 82 82 NNW 8 13 30.19 1023 10 16 0.00 0.00
8:53 am 08:53 Cloudy 32 0 25 -3.9 75 75 NNW 10 17 30.24 1024 10 16 0.00 0.00
9:53 am 09:53 Cloudy 32 0 25 -3.9 75 75 N 8 13 30.25 1025 10 16 0.00 0.00
10:53 am 10:53 Cloudy 33 0.6 25 -3.9 72 72 VRB 6 9 30.26 1025 10 16 0.00 0.00
11:53 am 11:53 Cloudy 33 0.6 25 -3.9 72 72 Calm 30.25 1025 10 16 0.00 0.00
12:53 pm 12:53 Cloudy 34 1.1 25 -3.9 70 70 WSW 3 6 30.24 1024 10 16 0.00 0.00
1:53 pm 13:53 Cloudy 35 1.7 25 -3.9 67 67 Calm 30.23 1024 10 16 0.00 0.00
2:53 pm 14:53 Mostly Cloudy 37 2.8 24 -4.4 59 59 VRB 6 9 30.23 1024 10 16 0.00 0.00
3:16 pm 15:16 Partly Cloudy 38 3.3 25 -3.9 60 60 SSW 6 9 30.24 1024 10 16 0.00 0.00
3:53 pm 15:53 Partly Cloudy 38 3.3 25 -3.9 60 60 SSE 6 9 30.21 1023 10 16 0.00 0.00
4:53 pm 16:53 Mostly Sunny 39 3.9 25 -3.9 57 57 SSW 6 9 30.19 1022 10 16 0.00 0.00
5:53 pm 17:53 Mostly Sunny 37 2.8 25 -3.9 62 62 SSE 8 13 30.19 1022 10 16 0.00 0.00
6:53 pm 18:53 Mostly Clear 35 1.7 25 -3.9 67 67 S 10 17 30.18 1022 10 16 0.00 0.00
7:53 pm 19:53 Clear 34 1.1 25 -3.9 70 70 SSE 10 17 30.16 1021 10 16 0.00 0.00
8:53 pm 20:53 Clear 32 0 25 -3.9 75 75 SSE 8 13 30.14 1021 10 16 0.00 0.00
9:53 pm 21:53 Clear 30 -1.1 25 -3.9 82 82 SSE 9 15 30.13 1020 10 16 0.00 0.00
10:53 pm 22:53 Mostly Clear 31 -0.6 25 -3.9 79 79 SSE 10 17 30.13 1020 9 14 0.00 0.00
11:53 pm 23:53 Mostly Clear 29 -1.7 25 -3.9 85 85 SE 12 19 30.09 1019 8 13 0.00 0.00

Powered by AerisWeather